[爆卦] 天鵝颱風成為21世紀以來的風王

看板 Gossiping
作者
時間
留言 160則留言,147人參與討論
推噓 115 ( 122推 7噓 31→ )
討論串 3
雖然天鵝颱風不會侵襲台灣, 但目前天鵝颱風已經寫下多項紀錄, 成為21世紀西北太平洋風王。 目前中央氣象局強度分析上已經超越2016年的莫蘭蒂颱風和2013年的海燕颱風。 預計通過菲律賓的大馬尼拉區... 中央氣象局 2020年10月31日20時 中心位置在北緯 14.2 度,東經 126.4 度 過去移動方向 西南西 過去移動時速 25公里 中心氣壓 888百帕 近中心最大風速每秒 65 公尺 瞬間最大陣風每秒 80 公尺 七級風暴風半徑 200 公里 十級風暴風半徑 80 公里 日本氣象廳 <01日03時の実況> 大きさ - 強さ 猛烈な 存在地域 フィリピンの東 中心位置 北緯 13度40分(13.7度) 東経 125度00分(125.0度) 進行方向、速さ 西南西 30km/h(15kt) 中心気圧 905hPa 中心付近の最大風速 60m/s(120kt) 最大瞬間風速 85m/s(170kt) 25m/s以上の暴風域 全域 95km(50NM) 15m/s以上の強風域 北西側 480km(260NM) 南東側 220km(120NM) 美國聯合颱風警報中心 884mb 170kt https://imgur.com/5vEVr5k.jpg
https://i.imgur.com/96Zntkl.jpg
https://imgur.com/Z9c62hY.gif
https://i.imgur.com/5cEnZJ2.jpg
讓我們替可憐的菲菲默哀3秒... --
※ 發信站: 批踢踢實業坊(ptt.cc), 來自: 218.164.215.167 (臺灣) ※ 文章網址: https://www.ptt.cc/bbs/Gossiping/M.1604172391.A.2D3.html
1FGGrunrundela: 一樓肥胖企鵝 11/01 03:26
2Fl6l6au: 靠北 比海燕還強喔 11/01 03:27
3Fsu4vu6: 不會放假就不重要啦 11/01 03:27
4Fra9999: 巨軟是在裝三洨可愛,嘔嘔嘔嘔嘔嘔歐歐歐 11/01 03:27
5FThreekRoger: 反正也沒種跟中央山派對峙 11/01 03:27
6FStylishTrade: 菲菲gg 11/01 03:27
7Favgirl: .........不會讓台灣放假的颱風有跟沒有一樣 11/01 03:28
8Fjhjhs33504: 888百帕 會不會耳鳴? 11/01 03:28
9FStylishTrade: 還好鄭成功沒去打馬尼拉 不然我們就會變成菲菲 11/01 03:28
10Fubcs: 夭壽大0.0 11/01 03:28
11FYuzanJhang: 今年都沒颱風欸 水量夠不夠啊 11/01 03:29
12Fmytoychiu: 2020真的一堆怪事 11/01 03:29
13Fstarfishfish: 結構也太完整... 11/01 03:29
14FYuzanJhang: 這眼睛也太明顯 11/01 03:30
15Fsimon860730: 能有一兩顆輕微的來台灣ㄇ 下點大雨啦 拜託 11/01 03:30
16Fanswertw: 那鳳王呢 11/01 03:31
※ 編輯: dunking (218.164.215.167 臺灣), 11/01/2020 03:33:21
17FJulian9x9x9: 最近美國的颶風叫Zeta 不曉得會不會變形 11/01 03:33
18FJinx: 那個眼 那圈深紅 怕 11/01 03:33
19Famego2017: 郝帥 11/01 03:40
20Fyaya: 台灣的國家機器真的很厲害 11/01 03:42
21FTaiYiMan: 業力引爆 11/01 03:46
22Fatpx: 今年氣候真的不正常 11/01 03:48
23FDuoDuokk77: 好紮實 11/01 03:49
24Fatpx: 整個夏天沒緩解的熱量都在這時候疊加這個颱風了 11/01 03:49
25Fpalapalanhu: 怕 11/01 03:57
26Fjonsauwi: 888百帕[email protected]@ 不過t值好像還沒爆表 11/01 03:58
27FFFtera: 那個紅有夠可怕... 11/01 03:58
28Ffit8590: 為所欲為 11/01 04:02
29FtLuesuGi: 這顆真的很誇張 花一天多的時間就變成強颱... 11/01 04:05
30Fchung74511: 重點是會不會放假 不會放就滾拉 11/01 04:11
31Fa27588679: 這會造成重創 怕爆 11/01 04:12
32Fmamahow1487: 遇到台灣還是得轉彎 11/01 04:16
33Fffaatt: 不敢靠近台灣 11/01 04:20
34Fhdxyz: 888 超猛DER 11/01 04:21
35Fleon1757tw: 超圓 11/01 04:24
36Fjarrodqq896: 現在11月了捏 颱風還這麼強 今年真的不正常 11/01 04:25
37Fawoorog: 好可怕 希望天佑菲律賓渡過難關 11/01 04:25
38Festupid: 暴風圈看起來好小 11/01 04:25
40FWTF555666: 有種來台灣挑戰辣座山啊! 11/01 04:36
41Fqwaszx012: https://www.windy.com/?14.552,125.398,6 轉超級快 11/01 04:37
42Flina7inverse: JTWC 22w (Goni) #16 - 170kts Cat.5 STY 11/01 04:48
45Fkelvin0004: 看起來超恐怖 11/01 04:50
46Fbloodyiris: 小鋼炮 11/01 04:51
47Fkenslc199: 太扯了== 11/01 04:53
48Fyafx4200p: 菲律賓 被颱風打到無言了吧 11/01 04:58
49FVOLK11: 颱風眼好清楚 11/01 05:19
50FVOLK11: 結構密實… 11/01 05:19
51Fweliche: 感覺散發著霸氣= = 11/01 05:22
52Fbygamantou: 幹好大 11/01 05:40
53FLeonBolton: 風速:65 m/s = 234 km/hr..... 11/01 05:48
54Ffeliz5566: 這個漂亮 11/01 05:51
55Fselvester: 然後南中囯接棒? 11/01 05:55
56Fyyyjason: 氣候變遷 以後極端風災會越來越多 11/01 05:57
57Fandy199113: 888 發發發 發大財啦!!!!!!!!!!!!! 11/01 06:10
58Fandy199113: 2020年邪門怪事 死人多 11/01 06:11
59Fshotakun: 日本測的怎麼高了17百帕 11/01 06:17
60Fshotakun: 外圍環流好像能掃到台灣,是要下雨了沒啊幹 11/01 06:19
61FEX37: 火王跟水王勒 11/01 06:32
62Fqwe159236: 米國88已控制 11/01 06:47
63Fhuabandd: 無所謂 不要來台灣就好 11/01 06:56
64Ffocusd: 聽起來還好,比飛機還慢 11/01 07:04
65Fkevin870325: 怕爆 11/01 07:04
66FKokoro: 好大 沒看過這麼清楚的颱風眼 11/01 07:09
67Fwangisiung: 沒來台灣啦,不然什麼史上最強來了都變垃圾 11/01 07:12
68Flaechan: 888百帕很誇張,一般低於930就很可怕了 11/01 07:13
69FiKelly: 結構超紮實...菲菲小心 11/01 07:15
70Fletbeit: 推文別在那裡嘴砲立flag,這顆真的很強,比13年海燕強是 11/01 07:17
71Fletbeit: 很誇張的事情,海燕當時菲律賓掛了6300多人欸 11/01 07:17
72Fletbeit: 這顆如果來台灣,我們應該也會很慘,少在那嘴砲 11/01 07:18
73Fcountrysong: 好清楚的颱風眼 11/01 07:19
74Fstu25936: 喔幹 菲律賓沒有什麼山脈可以解吧... 11/01 07:20
75Fzakijudelo: 看起來超紥實的,菲律賓慘了 11/01 07:21
76Fmaylin810: 菲律賓慘了吧,幸好沒不會進台灣 11/01 07:28
77Fqaz12453: 台灣看進場方向 西邊進來就屎很慘啦 11/01 07:32
78Fqaz12453: 東邊雖然慘 但經濟影響最低 11/01 07:33
79Fhomer00: 氣候變遷,整個往後順延,冬天變秋天 11/01 07:34
80Fkkevinhess1t: 這風眼太明顯了吧 11/01 07:35
81Fnat50601tw: 活該哈哈 11/01 07:54
82Faitela: 爽 11/01 07:55
83Facs81046: 沒有來說個屁 11/01 07:56
84Fzakijudelo: 這顆去南海會不會直接把中共的人造島礁都給毀了啊,爽 11/01 08:07
85FPompelmousJ: 怕 11/01 08:11
86Fbaelrog: 這顆看起來超肥,可怕 11/01 08:11
87FCybermark: 一般颱風是砂石車撞神山的話,這個就是聯結車了 11/01 08:14
88Fscamprandy: 以後變常態了 11/01 08:18
89Fdenny811012: 每秒65公尺 rip 11/01 08:19
90Fsaint01: 颶風人表示興奮 11/01 08:20
91Fvltw5v: 2020搭配最強颱風,我覺得菲律賓真的凶多吉少.. 11/01 08:20
92Fhigashi: 希望能帶點 11/01 08:20
93Fqwaqwa2007: 靠,超過海燕 11/01 08:20
94Fnodnarb1027: 幹可不可以往北一點,台灣缺水 11/01 08:25
95Fmitic1029: 風大就跑的快其實還好 11/01 08:28
96Fturgnev: 笑死,有種過來台灣幫補水 11/01 08:28
97FDoica2445: 菲律賓可憐 11/01 08:31
98Fchasher: 夭壽大 11/01 08:32
99Fskylion: 莫蘭弟 高雄很慘 11/01 08:32
100Fpokemonoxo: 超過海燕,那真的很強欸 11/01 08:43
101Fblackhippo: 中央山脈:笑話 11/01 08:45
102Fpantani: 如果美軍趁颱風從水下把南海基地炸掉不知道會怎樣 11/01 08:45
103Fa851315: 好美的颱風 11/01 08:49
104Fgxlin: 剛剛看了衛星雲圖 颱風眼已經是瞇瞇眼了 11/01 08:50
105FMayorKoWenJe: 菲律賓保重... 11/01 08:53
106Ftokyoto: 台灣有特殊力場 病毒和颱風都會避開 11/01 08:56
107Fwindalso: 紮實的大鋼砲@[email protected] 11/01 09:07
108Fc7683fh6: 都11月了還來颱風?恐怖 11/01 09:09
109Fdtdon1699: 可愛 11/01 09:12
110Flianginptt: 真的是一堆智障,幾年沒大颱風就忘了颱風的可怕 11/01 09:16
111Fhikku: 天佑台灣呀 台灣好久沒有颱風 真的是神功護體 11/01 09:26
112Fpp810207: 海燕很恐怖,那時候橫掃整個菲律賓 11/01 09:33
113Fericayou: 不打嘴砲 超大顆 默哀 11/01 09:33
114Feterbless: 這氣壓不是開玩笑吧 好猛 11/01 09:35
115Fzilkle: 除名颱風..... 11/01 09:39
116FEXZUSIC: 先說了,會有不少人命損失在這颱風上 11/01 09:39
117Fkilin1: 這什麼超大玉螺旋丸... 11/01 09:41
118Fxhung: 怕...... 11/01 09:44
119Filovemiao: 怕爆 它強度發展超快的 11/01 09:54
120Fchris44099: 竟然這麼多人希望來台灣的是有病? 11/01 09:56
121Flover19: 就是些只想著放假的 11/01 09:58
122Fwillywasd: 拜託別來 11/01 09:58
123Fstw0975: 兇 11/01 10:02
124Fshinobunodok: 但還是不敢來台灣 11/01 10:05
125Fphilxiao: 這個中心氣壓… 低於900就是超可怕了,他888 WTF 11/01 10:11
126Famazingwow: 颱風看到中央山脈就怕了 只敢欺負菲菲 11/01 10:13
127Fflowersuger: 喔喔 好像很強 11/01 10:19
128Fwillis0623: 分點邊邊角角的雨水過來就好,缺水啦~ 11/01 10:20
129Fomoideomoi: 每年都一直在破紀錄 恐怖 11/01 10:28
130FPhySeraph: 8字頭 怕.jpg 11/01 10:29
131Forangetv: 哇塞它的颱風眼好漂亮 11/01 10:34
132Fdavid213: 我以為海燕已經接近完美狀態了 11/01 10:36
133Flibu: 颱風眼的形狀也太完整…… 11/01 10:39
134Falinalovers: 海神輸了 11/01 10:41
135FBleuSaphir: 888百帕是什麼概念……好恐怖 11/01 10:54
136FOoxxeeoo: 這颱風眼超明顯,幫QQ 11/01 10:58
137Fhighwayshih: 這顆看起來超飽滿 怕爆 還好沒來 11/01 11:14
138Fcheng31507: 幹超大= = 11/01 11:23
139Ffelixhsin: 發文想放假的幾乎都是4%仔。難怪社會上的......... 11/01 11:23
140Fmynewid: 笑死菲菲根本沒在怕的 11/01 11:24
141Finshimmer: 希望菲律賓百姓沒事 去支那殺中國人吧謝謝 11/01 11:46
142FBepHbin: 他媽的就不會來,報三小,幹你娘 11/01 11:53
143FSUZUKI5566: 好美 11/01 11:56
144FEZX: 舒服 11/01 11:56
145Fwhitelady: 阿嬤養的颱風 11/01 11:58
146Fpp810207: 現在不知道有沒有減弱一點 11/01 12:12
147Fholybless: 排~山倒~~海~ 11/01 12:18
148FSiika: 幹超大 11/01 12:33
149Ftony24334: 幫他們默哀三秒 然後開始笑三小時 11/01 12:42
150FdWoWb: 打不過中央山脈就往左跑 11/01 12:43
151FWWIII: 外勞快點回去就國 11/01 12:51
152Flittlelinsyu: 要直衝越緬去了 11/01 12:52
153Fliorio: 推文一堆北七 11/01 12:52
154Faries1985: 哇 美 11/01 13:29
155Fcura4404: 哇QQ 希望不要造成太大傷害 11/01 14:33
156Fjay0215: 台灣太久沒啥天災了 嘴一下受災難的別國是很正常的 11/01 14:38
157Ftbes: 推 11/01 14:44
158Fwrbdnombd: 每次都一堆颱風先找他們玩然後又沒什麼天然屏障可以坦. 11/01 15:48
159Fs540421: 菲菲早就在撤離居民了,哪沒在怕,別亂講好嗎 11/01 16:30
160Fjsyunlin: 這颱風眼也太可怕了 11/02 08:47

完整討論串

留言數 標題 作者 日期
160 >> [爆卦] 天鵝颱風成為21世紀以來的風王 dunking 2020/11/01 03:26:29
33 Re: [爆卦] 天鵝颱風成為21世紀以來的風王 wizard12379 2020/11/01 04:46:24
2 Re: [爆卦] 天鵝颱風成為21世紀以來的風王 Qorqios 2020/11/01 08:59:20

八卦 看板熱門文章

53
114